DLH114 KDFW-OMDB

Flight info

Callsign DLH114
Flight time N/A
Altitude 33000
Route ZACHH4 BSKAT DCT JEBEP DCT HUMBO DCT TIIDE DCT GVR/N0489F350 DCT EMPTY DCT FOXEE DCT JHW DCT SAEZE DCT MPV DCT EBONY N505B ALLRY/M085F370 DCT 51N050W 53N040W 55N030W 56N020W DCT PIKIL DCT SOVED/N0478F370 DCT LUTOV DCT MAKUX DCT SOSIM L15 KEPAD/N0492F390 L15 MOTOX DCT RUCAC DCT LESDO DCT ETINO DCT DEVDI DCT RIPUS DCT RESIA DCT BELOV DCT LATAN DCT SALUN N705 MMA P751 DASUM Y234 FYM M872 LUBOS/N0487F410 M872 BDB Y214 RAPMA DCT KUVSO DCT KATIT DCT PEKEM M628 RIGIL G783 ELUDA/N0462F350 G783 ASPED Q308 KIPOK Q568 IMPED
Aircraft A388/J-SADE2E3FGHIJ3J4J5M1RWXY/LB1D1

Departure

Time 2026-05-04 01:58
Airport Dallas Fort Worth International Airport (KDFW)

Arrival

Time N/A
Airport Dubai International Airport (OMDB)
Time Latitude Longitude Altitude Speed Heading
2026-05-04 01:42 32.91536 -97.06077 636 ft 0 kts 180°
2026-05-04 01:51 32.91548 -97.06077 636 ft 4 kts 171°
2026-05-04 01:51 32.91572 -97.06087 636 ft 4 kts 137°
2026-05-04 01:51 32.91587 -97.06113 638 ft 4 kts 108°
2026-05-04 01:52 32.91592 -97.06142 633 ft 2 kts 91°
2026-05-04 01:52 32.91592 -97.06144 632 ft 0 kts 91°
2026-05-04 01:54 32.91591 -97.06098 623 ft 8 kts 91°
2026-05-04 01:54 32.91587 -97.06002 633 ft 12 kts 93°
2026-05-04 01:55 32.91581 -97.05904 627 ft 12 kts 96°
2026-05-04 01:55 32.91571 -97.05779 632 ft 16 kts 95°
2026-05-04 01:55 32.91568 -97.05641 627 ft 17 kts 90°
2026-05-04 01:55 32.91567 -97.05509 627 ft 15 kts 90°
2026-05-04 01:56 32.91567 -97.05381 631 ft 16 kts 90°
2026-05-04 01:56 32.91566 -97.05243 623 ft 18 kts 90°
2026-05-04 01:56 32.91566 -97.05134 620 ft 0 kts 94°
2026-05-04 01:56 32.91565 -97.05123 618 ft 7 kts 101°
2026-05-04 01:57 32.91545 -97.05091 624 ft 4 kts 152°
2026-05-04 01:57 32.91509 -97.05074 629 ft 5 kts 174°
2026-05-04 01:57 32.91374 -97.05074 625 ft 48 kts 179°
2026-05-04 01:57 32.91027 -97.05073 629 ft 98 kts 180°
2026-05-04 01:58 32.89797 -97.05087 630 ft 159 kts 181°
2026-05-04 01:58 32.88655 -97.05142 1048 ft 164 kts 182°
2026-05-04 01:58 32.87546 -97.04910 1562 ft 167 kts 152°
2026-05-04 01:58 32.86690 -97.04014 2146 ft 162 kts 139°
2026-05-04 01:59 32.85958 -97.02926 2367 ft 178 kts 134°
2026-05-04 01:59 32.85446 -97.02103 2451 ft 188 kts 133°
2026-05-04 01:59 32.84649 -97.00803 2541 ft 200 kts 132°
2026-05-04 01:59 32.84102 -96.99233 2598 ft 223 kts 102°
2026-05-04 02:00 32.84337 -96.97295 2758 ft 253 kts 74°
2026-05-04 02:00 32.85462 -96.94658 3161 ft 279 kts 64°
2026-05-04 02:00 32.86112 -96.93282 3540 ft 283 kts 64°
2026-05-04 02:00 32.87032 -96.91194 4192 ft 284 kts 66°
2026-05-04 02:01 32.87892 -96.89066 4812 ft 288 kts 68°
2026-05-04 02:01 32.88705 -96.86925 5506 ft 288 kts 68°
2026-05-04 02:01 32.89518 -96.84726 6100 ft 293 kts 69°
2026-05-04 02:01 32.90329 -96.82511 6871 ft 289 kts 68°
2026-05-04 02:02 32.91148 -96.80271 7473 ft 293 kts 68°
2026-05-04 02:02 32.91964 -96.78040 8078 ft 296 kts 68°
2026-05-04 02:02 32.92779 -96.75811 8698 ft 298 kts 68°
2026-05-04 02:02 32.93612 -96.73534 9317 ft 301 kts 68°
2026-05-04 02:03 32.94456 -96.71224 9796 ft 309 kts 68°
2026-05-04 02:03 32.95331 -96.68827 10149 ft 319 kts 67°
2026-05-04 02:03 32.96222 -96.66384 10598 ft 325 kts 67°
2026-05-04 02:03 32.97145 -96.63855 10766 ft 341 kts 67°
2026-05-04 02:04 32.98109 -96.61209 10924 ft 356 kts 67°
2026-05-04 02:04 32.99100 -96.58488 11408 ft 359 kts 67°
2026-05-04 02:04 33.00097 -96.55746 11882 ft 363 kts 67°
2026-05-04 02:04 33.01101 -96.52987 12424 ft 364 kts 66°
2026-05-04 02:05 33.02111 -96.50204 12918 ft 368 kts 66°
2026-05-04 02:05 33.03133 -96.47389 13422 ft 371 kts 66°
2026-05-04 02:05 33.04157 -96.44567 13983 ft 371 kts 66°
2026-05-04 02:05 33.05184 -96.41730 14427 ft 374 kts 66°
2026-05-04 02:06 33.06218 -96.38874 14882 ft 377 kts 66°
2026-05-04 02:06 33.07260 -96.35990 15318 ft 380 kts 66°
2026-05-04 02:06 33.08306 -96.33094 15769 ft 382 kts 66°
2026-05-04 02:06 33.09360 -96.30176 16207 ft 385 kts 66°
2026-05-04 02:07 33.10421 -96.27232 16638 ft 387 kts 66°
2026-05-04 02:07 33.11486 -96.24277 17065 ft 390 kts 65°
2026-05-04 02:07 33.12562 -96.21289 17507 ft 392 kts 65°
2026-05-04 02:07 33.13639 -96.18294 17931 ft 395 kts 65°
2026-05-04 02:08 33.14724 -96.15273 18347 ft 397 kts 65°